Regional Weather Roundup
Issued by NWS

Home | Current Version | Previous Version | Graphics & Text | Print | Product List | Glossary On
Versions: 1 2 3 4 5 6 7 8 9 10 11 12 13 14 15 16 17 18 19 20 21 22 23 24 25 26 27 28 29 30 31 32 33 34 35 36 37 38 39 40 41 42 43 44 45 46 47 48 49 50
000
ASUS45 KPSR 291810
RWRAZ

ARIZONA REGIONAL HOURLY WEATHER ROUNDUP
NATIONAL WEATHER SERVICE PHOENIX AZ
1100 AM MST FRI AUG 29 2014

NOTE: FAIR INDICATES FEW OR NO CLOUDS BELOW 12,000 FEET WITH NO
SIGNIFICANT WEATHER AND/OR OBSTRUCTIONS TO VISIBILITY.

AZZ001>003-036-291900-
NORTHWEST ARIZONA

CITY           SKY/WX    TMP DP  RH WIND       PRES   REMARKS
BULLHEAD CITY  SUNNY     95  37  13 CALM      29.84F
KINGMAN        SUNNY     93  35  13 VRB3      30.03F
6HR MIN TEMP:  62; 6HR MAX TEMP:  93;

$$

AZZ004>008-015-016-018-291900-
NORTH CENTRAL ARIZONA

CITY           SKY/WX    TMP DP  RH WIND       PRES   REMARKS
GRAND CANYON   SUNNY     77  30  17 N12       30.27S
WILLIAMS       SUNNY     75  37  25 N3        30.34S
PRESCOTT       SUNNY     80  46  30 N5        30.16F
6HR MIN TEMP:  54; 6HR MAX TEMP:  80;

FLAGSTAFF      SUNNY     75  38  26 VRB3      30.30F
6HR MIN TEMP:  41; 6HR MAX TEMP:  75;

PAYSON         SUNNY     84  37  18 N5        30.16F
PAGE           SUNNY     82  44  26 NW5       30.12F
6HR MIN TEMP:  65; 6HR MAX TEMP:  82;

$$

AZZ009>014-017-291900-
NORTHEAST ARIZONA

CITY           SKY/WX    TMP DP  RH WIND       PRES   REMARKS
WINSLOW        SUNNY     79  46  31 W5        30.17F
6HR MIN TEMP:  53; 6HR MAX TEMP:  79;

SAINT JOHNS    SUNNY     78  40  25 NE8       30.20F
6HR MIN TEMP:  50; 6HR MAX TEMP:  78;

SHOW LOW       SUNNY     73  36  25 E8G16     30.27F
$$

AZZ023-291900-
GREATER PHOENIX AREA

CITY           SKY/WX    TMP DP  RH WIND       PRES   REMARKS
PHOENIX        SUNNY    100  43  14 E7        29.82F
6HR MIN TEMP:  83; 6HR MAX TEMP: 100;

BUCKEYE          N/A     95  52  23 SE10      29.84F
GLENDALE       SUNNY     99  48  18 E5        29.85F
LUKE AFB       NOT AVBL
6HR MIN TEMP:  78; 6HR MAX TEMP:  97;

DEER VALLEY    SUNNY     96  41  15 VRB6      29.85F
6HR MIN TEMP:  79; 6HR MAX TEMP:  97;

SCOTTSDALE     SUNNY     97  48  18 S3        29.87F
6HR MIN TEMP:  77; 6HR MAX TEMP:  97;

MESA-FALCON    SUNNY     97  41  14 N8        29.85
MESA-GATEWAY   SUNNY     95  43  16 CALM      29.88F
CHANDLER       SUNNY     95  46  18 E5        29.86F
$$

AZZ027-028-291900-
SOUTHWEST MARICOPA COUNTY AND PINAL COUNTY

CITY           SKY/WX    TMP DP  RH WIND       PRES   REMARKS
CASA GRANDE    SUNNY     95  48  20 E6        29.87F
6HR MIN TEMP:  73; 6HR MAX TEMP:  95;

GILA BEND      CLEAR    100  43  14 NE3       29.83F
$$

AZZ503-504-507>509-291900-
SOUTHEAST ARIZONA

CITY           SKY/WX    TMP DP  RH WIND       PRES   REMARKS
TUCSON         SUNNY     95  45  17 VRB5      29.96F
6HR MIN TEMP:  72; 6HR MAX TEMP:  95;

DAVIS-MONTHAN  SUNNY     91  46  21 CALM      29.94F
6HR MIN TEMP:  69; 6HR MAX TEMP:  91;

RYAN FIELD       N/A     93  45  18 N3        29.95F
NOGALES        SUNNY     87  52  29 VRB5      30.05F
6HR MIN TEMP:  59; 6HR MAX TEMP:  87;

SIERRA VISTA   MOSUNNY   86  45  23 NE6       30.12F
DOUGLAS        SUNNY     85  50  29 S3        30.07F
6HR MIN TEMP:  57; 6HR MAX TEMP:  86;

SAFFORD        SUNNY     90  42  18 E6        29.98F
6HR MIN TEMP:  65; 6HR MAX TEMP:  90;

$$

AZZ020-021-025-026-031-291900-
SOUTHWEST ARIZONA

CITY           SKY/WX    TMP DP  RH WIND       PRES   REMARKS
YUMA           SUNNY    104  40  11 CALM      29.77F
6HR MIN TEMP:  81; 6HR MAX TEMP: 104;

$$

CAZ031-033-041-043-047-048-061-291900-
SOUTHERN CALIFORNIA

CITY           SKY/WX    TMP DP  RH WIND       PRES   REMARKS
DOWNTOWN L.A.  SUNNY     84  57  39 S3        29.87F
6HR MIN TEMP:  65; 6HR MAX TEMP:  84;

L.A. AIRPORT   MOSUNNY   76  62  62 SW6       29.89F
6HR MIN TEMP:  67; 6HR MAX TEMP:  76;

SAN DIEGO      MOSUNNY   77  64  64 NW7       29.90S
6HR MIN TEMP:  70; 6HR MAX TEMP:  78;

BURBANK        SUNNY     84  48  28 SE8       29.89F
6HR MIN TEMP:  67; 6HR MAX TEMP:  84;

ONTARIO        MOSUNNY   87  48  25 S3        29.90S
6HR MIN TEMP:  69; 6HR MAX TEMP:  87;

RIVERSIDE      SUNNY     87  49  26 W6        29.89F
6HR MIN TEMP:  67; 6HR MAX TEMP:  88;

PALM SPRINGS   MOSUNNY  103  40  11 VRB3      29.79F
6HR MIN TEMP:  82; 6HR MAX TEMP: 104;

EL CENTRO NAS  SUNNY    104  47  14 CALM      29.75F HX 100
6HR MIN TEMP:  78; 6HR MAX TEMP: 105;

IMPERIAL       SUNNY    101  51  18 W5        29.75F
6HR MIN TEMP:  77; 6HR MAX TEMP: 102;

BLYTHE         SUNNY     99  45  15 VRB5      29.80S
6HR MIN TEMP:  76; 6HR MAX TEMP: 100;

NEEDLES        SUNNY     99  37  11 VRB3      29.84F
6HR MIN TEMP:  78; 6HR MAX TEMP:  99;

$$

NVZ020-UTZ003-291900-
SOUTHERN NEVADA-UTAH

CITY           SKY/WX    TMP DP  RH WIND       PRES   REMARKS
LAS VEGAS      MOSUNNY   94  32  11 VRB3      29.90F
6HR MIN TEMP:  78; 6HR MAX TEMP:  94;

SALT LAKE CITY MOSUNNY   81  46  29 SE12      30.08F
6HR MIN TEMP:  60; 6HR MAX TEMP:  81;

$$

NMZ009-TXZ055-291900-
NEW MEXICO-WEST TEXAS

CITY           SKY/WX    TMP DP  RH WIND       PRES   REMARKS
ALBUQUERQUE    MOSUNNY   78  44  29 E6        30.18F
6HR MIN TEMP:  63; 6HR MAX TEMP:  78;

EL PASO        MOSUNNY   87  46  24 NW3       30.05F
6HR MIN TEMP:  70; 6HR MAX TEMP:  88;

$$


........................KEY........................
SKY/WX - SKY CONDITION/WEATHER
TMP    - TEMPERATURE IN FAHRENHEIT
DP     - DEW POINT IN FAHRENHEIT
RH     - RELATIVE HUMIDITY IN PERCENT
WIND   - DIRECTION AND SPEED IN MILES PER HOUR (MPH)
VRB    - VARIABLE WIND DIRECTION
PRES   - MEAN SEA LEVEL PRESSURE IN INCHES OF MERCURY
         F - FALLING PRESSURE   R - RISING PRESSURE
         S - STEADY PRESSURE
VSB    - VISIBILITY IN MILES
HX     - HEAT INDEX IN FAHRENHEIT
WCI    - WIND CHILL INDEX IN FAHRENHEIT
TC     - TEMPERATURE IN CELSIUS WHICH IS ALSO KNOWN AS
         TEMPERATURE IN CENTIGRADE
AFB    - AIR FORCE BASE
         LUKE AFB IS LUKE AIR FORCE BASE
         DAVIS-MONTHAN IS DAVIS-MONTHAN AIR FORCE BASE
NAS    - NAVAL AIR STATION
         EL CENTRO NAS IS EL CENTRO NAVAL AIR STATION
N/A    - NOT AVAILABLE


USA.gov is the U.S. government's official web portal to all federal, state and local government web resources and services.